UNSW-EC0
1 42723U 98067MC 18039.91700562 .00021033 00000-0 20852-3 0 9998
2 42723 051.6381 287.6389 0006400 113.1827 246.9843 15.65742560040517
DUTHsat
1 42724U 98067MD 18039.90347482 .00033636 00000-0 28781-3 0 9997
2 42724 051.6354 285.2680 0005560 120.0006 240.1543 15.69107041040480
LO-90
1 42725U 98067ME 18039.94207859 .00015949 00000-0 17353-3 0 9995
2 42725 051.6373 289.3031 0005963 114.6636 245.4980 15.63604405040430
nSIGHT1
1 42726U 98067MF 18039.91317458 .00006274 00000-0 84306-4 0 9994
2 42726 051.6392 292.8804 0006504 113.5431 246.6246 15.59353896040373
QBITO
1 42728U 98067MH 18039.92961149 .00016764 00000-0 17604-3 0 9990
2 42728 051.6393 288.4976 0003739 120.2291 239.9074 15.64477515040233
Aalto-2
1 42729U 98067MJ 18039.92422985 .00016961 00000-0 17725-3 0 9994
2 42729 051.6374 288.4361 0003675 120.2454 239.8906 15.64590784040249
SUSat
1 42730U 98067MK 18039.89940719 .00016094 00000-0 17233-3 0 9993
2 42730 051.6369 289.0118 0003762 116.7631 243.3749 15.64016295040230
i-INSPIRE II
1 42731U 98067ML 18039.95107942 .00019629 00000-0 19193-3 0 9998
2 42731 051.6362 287.0798 0006025 071.6895 288.4755 15.66143671040308
PolyITAN-2-SAU
1 42732U 98067MM 18039.90630814 .00017556 00000-0 18170-3 0 9994
2 42732 051.6368 288.2926 0006262 068.5857 291.5805 15.64796622040283
SNUSAT-1
1 42733U 98067MN 18039.90089695 .00016428 00000-0 17576-3 0 9996
2 42733 051.6370 289.0128 0006462 070.4181 289.7511 15.64006947040270
ExAlta-1
1 42734U 98067MP 18039.95661023 .00024433 00000-0 23703-3 0 9997
2 42734 051.6353 287.1155 0007532 092.9944 267.1913 15.66176787040252
Aoxiang-1
1 42735U 98067MQ 18039.92914980 .00012454 00000-0 14230-3 0 9993
2 42735 051.6368 289.9541 0007401 108.8747 251.3050 15.62580731041635
BeEagleSat
1 42736U 98067MR 18039.94732953 .00014903 00000-0 16410-3 0 9997
2 42736 051.6364 289.3227 0007201 108.9034 251.2741 15.63352299040334
Atlantis
1 42737U 98067MS 18039.88792792 .00108256 00000-0 50521-3 0 9994
2 42737 51.6267 277.5220 0005521 144.1736 215.9638 15.82457562 40379
CAS-4B
1 42759U 17034B 18039.78975694 .00000182 00000-0 24824-4 0 9993
2 42759 43.0188 68.0842 0008455 14.9058 325.0147 15.09183926 36049
CAS-4A
1 42761U 17034D 18039.77704861 .00000224 00000-0 27427-4 0 9990
2 42761 43.0188 68.0094 0008706 16.1568 318.9085 15.09259656 36035
UCLSat
1 42765U 17036A 18039.84711198 .00001239 00000-0 58060-4 0 9999
2 42765 097.4192 101.6712 0012529 159.3322 200.8423 15.21493160035784
NIUSat
1 42766U 17036B 18039.91476390 .00000908 00000-0 45053-4 0 9990
2 42766 097.4194 101.2861 0017036 148.1671 212.0598 15.20103387035044
LituanicaSAT 2
1 42768U 17036D 18039.72357080 .00001910 00000-0 89460-4 0 9999
2 42768 97.4203 101.2398 0016872 151.6313 208.5845 15.20808201 35032
Aalto 1
1 42775U 17036L 18039.84611784 .00000793 00000-0 39367-4 0 9993
2 42775 97.4190 101.3690 0015193 148.4017 211.8133 15.20504512 34990
URSA MAIOR
1 42776U 17036M 18039.83861617 .00000822 00000-0 40591-4 0 9999
2 42776 097.4195 101.3889 0015077 148.6349 211.5788 15.20569082034993
Max Valier Sat
1 42778U 17036P 18039.77569962 .00000859 00000-0 41751-4 0 9991
2 42778 97.4215 101.5232 0013572 153.4793 206.7140 15.21020582 34982
Pegasus
1 42784U 17036V 18039.80357534 .00001052 00000-0 50027-4 0 9994
2 42784 097.4195 101.5842 0013063 159.7427 200.4329 15.21325448034991
NUDATSat
1 42787U 17036Y 18039.82983053 .00001603 00000-0 73685-4 0 9997
2 42787 097.4199 101.7048 0012687 159.5542 200.6205 15.21753532034843
SUCHAI 1
1 42788U 17036Z 18039.91256208 .00001304 00000-0 60870-4 0 9993
2 42788 097.4195 101.7420 0012713 159.2867 200.8887 15.21537425035087
SKCUBE
1 42789U 17036AA 18039.84416947 .00001210 00000-0 56744-4 0 9995
2 42789 097.4194 101.6773 0012535 159.4085 200.7658 15.21525917034990
VZLUSAT 1
1 42790U 17036AB 18039.75558668 .00001534 00000-0 70575-4 0 9991
2 42790 097.4196 101.6398 0012234 159.8821 200.2900 15.21783549034986
VENTA 1
1 42791U 17036AC 18039.89660877 .00001167 00000-0 54746-4 0 9997
2 42791 097.4193 101.7580 0012146 159.5861 200.5863 15.21594945034993
Robusta 1B
1 42792U 17036AD 18039.69300150 .00001223 00000-0 57097-4 0 9996
2 42792 097.4193 101.5662 0012083 160.6560 199.5137 15.21661514034989
D-SAT
1 42794U 17036AF 18039.91429665 .00000267 00000-0 28969-4 0 9999
2 42794 097.6109 099.2953 0126928 349.6781 010.1835 14.90776964034618
BIRD-J
1 42820U 98067MU 18039.94710168 .00014168 00000-0 16133-3 0 9990
2 42820 051.6367 290.8233 0003069 060.8754 299.2547 15.62552108033796
BIRD-G
1 42821U 98067MV 18039.90304558 .00013950 00000-0 16067-3 0 9993
2 42821 051.6366 291.2793 0003146 063.1370 296.9946 15.62272384033767
BIRD-M
1 42822U 98067MW 18039.89857262 .00014198 00000-0 16274-3 0 9992
2 42822 051.6368 291.2515 0003161 065.4242 294.7081 15.62378598033762
BIRD-B
1 42823U 98067MX 18039.89982817 .00014830 00000-0 16946-3 0 9997
2 42823 051.6373 291.2695 0006132 076.0128 284.1548 15.62406831033763
BIRD-N
1 42824U 98067MY 18039.91128384 .00014116 00000-0 16235-3 0 9990
2 42824 051.6380 291.3542 0006019 076.4709 283.6955 15.62286806033761
TechnoSat
1 42829U 17042E 18039.89648677 .00000176 00000-0 23394-4 0 9994
2 42829 97.6068 307.0058 0012791 266.2801 93.6955 14.90764503 31225
Mayak
1 42830U 17042F 18039.93778878 .00000701 00000-0 76140-4 0 9999
2 42830 097.6078 307.1213 0012927 264.1596 095.8150 14.91103222031228
OBJECT MZ
1 42910U 98067MZ 18039.94913264 .00010863 00000-0 13559-3 0 9999
2 42910 051.6364 293.0746 0007286 093.2109 266.9718 15.60426989027335
OBJECT NA
1 42911U 98067NA 18039.92715477 .00011663 00000-0 14262-3 0 9995
2 42911 051.6374 292.9541 0006812 089.5743 270.6031 15.60884679027316
OBJECT NB
1 42912U 98067NB 18039.89215960 .00011640 00000-0 14431-3 0 9997
2 42912 051.6372 293.4350 0006324 100.8197 259.3508 15.60526358027328
OBJECT NC
1 42913U 98067NC 18039.95587058 .00021694 00000-0 23054-3 0 9996
2 42913 051.6361 290.8686 0005311 112.5210 247.6347 15.63967105027368
OBJECT ND
1 42914U 98067ND 18039.91222749 .00011087 00000-0 13950-3 0 9995
2 42914 051.6376 293.6012 0006246 095.2257 264.9449 15.60193582027299
QIKCOM-1
1 42983U 98067NF 18039.75992968 .00002398 00000-0 41745-4 0 9999
2 42983 51.6426 298.3693 0005375 87.2071 20.3911 15.55305567 16226
AO-91
1 43017U 17073E 18039.78390788 .00000974 00000-0 82601-4 0 9995
2 43017 097.6994 336.3465 0259794 329.8877 028.7610 14.77889505012147
